Weather History for Columbia, MO

Change the Weather History Date:

Wednesday, April 4, 2012

  Actual Average Record
Temperature  
Mean Temperature 62 °F 51 °F  
Max Temperature 70 °F 62 °F 88 °F (1942)
Min Temperature 54 °F 40 °F 18 °F (1899)
Degree Days  
Heating Degree Days 3 14  
Month to date heating degree days 3 58  
Since 1 July heating degree days 3552 4640  
Cooling Degree Days 0 0  
Month to date cooling degree days 22 0  
Year to date cooling degree days 70 3  
Growing Degree Days 12 (Base 50)    
Moisture  
Dew Point 54 °F    
Average Humidity 77    
Maximum Humidity 93    
Minimum Humidity 61    
Precipitation  
Precipitation 0.12 in 0.13 in 1.73 in (1969)
Month to date precipitation 0.12 0.50  
Year to date precipitation 7.85 7.58  
Snow  
Snow 0.00 in 0.00 in 4.60 in (1920)
Month to date snowfall 0.0 0.1  
Since 1 July snowfall 6.6 17.9  
Snow Depth 0.00 in    
Sea Level Pressure  
Sea Level Pressure 29.78 in    
Wind  
Wind Speed 9 mph (NE)    
Max Wind Speed 18 mph    
Max Gust Speed 23 mph    
Visibility 7 miles    
Events Rain    
T = Trace of Precipitation, MM = Missing Value Source: NWS Daily Summary

Daily Weather History Graph

Daily Weather History Graph

Search for Another Location

Airport:

Trip Planner

Search our weather history database for the weather conditions in past years. The results will help you decide how hot, cold, wet, or windy it might be!

Date:

Astronomy

Apr. 04, 2012 Rise Set
Actual Time 6:48 AM CDT 7:35 PM CDT
Civil Twilight 6:21 AM CDT 8:02 PM CDT
Nautical Twilight 5:49 AM CDT 8:34 PM CDT
Astronomical Twilight 5:16 AM CDT 9:07 PM CDT
Moon 5:30 PM CDT (4/4) 5:09 AM CDT (4/4)
Length of Visible Light 13h 41m
Length of Day
12h 47m
Waxing Gibbous, 94% of the Moon is Illuminated
Apr 4
Waxing Gibbous
Apr 6
Full
Apr 13
Last Quarter
Apr 21
New
Apr 29
First Quarter

Hourly Weather History & Observations

Time (CDT) Temp. Dew Point Humidity Pressure Visibility Wind Dir Wind Speed Gust Speed Precip Events Conditions
12:54 AM 60.1 °F 57.9 °F 93% 29.81 in 7.0 mi Calm Calm - N/A   Clear
1:54 AM 60.1 °F 57.0 °F 90% 29.78 in 7.0 mi Calm Calm - N/A   Clear
2:18 AM 57.2 °F 55.4 °F 94% 29.81 in 1.8 mi North 4.6 mph - N/A   Clear
2:34 AM 57.2 °F 55.4 °F 94% 29.81 in 2.0 mi North 5.8 mph - N/A   Clear
2:54 AM 57.0 °F 55.0 °F 93% 29.78 in 2.0 mi North 4.6 mph - N/A   Clear
3:09 AM 57.2 °F 55.4 °F 94% 29.79 in 3.0 mi North 3.5 mph - N/A   Clear
3:20 AM 57.2 °F 55.4 °F 94% 29.79 in 2.5 mi NNE 3.5 mph - N/A   Clear
3:31 AM 57.2 °F 55.4 °F 94% 29.79 in 4.0 mi North 3.5 mph - N/A   Clear
3:54 AM 57.9 °F 55.9 °F 93% 29.78 in 6.0 mi NE 3.5 mph - N/A   Clear
4:54 AM 57.9 °F 55.9 °F 93% 29.78 in 7.0 mi NNE 6.9 mph - N/A   Clear
5:54 AM 57.9 °F 55.0 °F 90% 29.78 in 6.0 mi NNE 11.5 mph - N/A   Partly Cloudy
6:27 AM 57.2 °F 55.4 °F 94% 29.79 in 6.0 mi NE 12.7 mph - N/A   Scattered Clouds
6:54 AM 57.0 °F 54.0 °F 89% 29.78 in 4.0 mi ENE 13.8 mph - N/A   Partly Cloudy
7:16 AM 57.2 °F 53.6 °F 88% 29.80 in 4.0 mi NE 10.4 mph - N/A   Mostly Cloudy
7:54 AM 55.9 °F 50.0 °F 80% 29.81 in 6.0 mi NE 15.0 mph 21.9 mph N/A   Haze
8:54 AM 55.9 °F 51.1 °F 84% 29.82 in 5.0 mi ENE 12.7 mph 21.9 mph N/A   Haze
9:20 AM 57.2 °F 51.8 °F 82% 29.84 in 5.0 mi East 8.1 mph - N/A   Haze
9:54 AM 57.2 °F 51.8 °F 82% 29.84 in 6.0 mi ENE 6.9 mph - N/A   Haze
10:30 AM 62.6 °F 53.6 °F 72% 29.84 in 8.0 mi NE 9.2 mph - N/A   Scattered Clouds
10:54 AM 64.0 °F 54.0 °F 70% 29.83 in 9.0 mi East 5.8 mph - N/A   Partly Cloudy
11:54 AM 68.0 °F 55.9 °F 65% 29.82 in 10.0 mi East 6.9 mph - N/A   Partly Cloudy
12:54 PM 69.1 °F 55.9 °F 63% 29.77 in 10.0 mi ENE 12.7 mph - N/A   Clear
1:54 PM 69.1 °F 55.0 °F 61% 29.75 in 10.0 mi ENE 13.8 mph 23.0 mph N/A   Clear
2:54 PM 66.0 °F 54.0 °F 65% 29.76 in 10.0 mi NNE 15.0 mph - N/A   Mostly Cloudy
3:54 PM 63.0 °F 53.1 °F 70% 29.76 in 10.0 mi NNE 15.0 mph - N/A   Overcast
4:54 PM 61.0 °F 52.0 °F 72% 29.75 in 10.0 mi NE 15.0 mph - N/A   Mostly Cloudy
5:54 PM 59.0 °F 51.1 °F 75% 29.76 in 9.0 mi ENE 11.5 mph - 0.00 in Rain Light Rain
6:54 PM 57.9 °F 53.1 °F 84% 29.74 in 7.0 mi NE 10.4 mph - 0.01 in Rain Light Rain
7:54 PM 57.9 °F 53.1 °F 84% 29.72 in 9.0 mi ENE 10.4 mph - 0.00 in   Partly Cloudy
8:54 PM 57.9 °F 53.1 °F 84% 29.72 in 9.0 mi ENE 10.4 mph - N/A   Clear
9:54 PM 59.0 °F 53.1 °F 81% 29.75 in 9.0 mi NNE 3.5 mph - 0.00 in Rain Light Rain
10:54 PM 57.9 °F 54.0 °F 87% 29.75 in 5.0 mi NE 5.8 mph - 0.04 in Rain Light Rain
11:54 PM 57.0 °F 54.0 °F 89% 29.73 in 9.0 mi ENE 5.8 mph - 0.02 in   Overcast